Temp
20 21 20 21 21 21 22 21 20 20 20 21 20 20 20 20 21 22 23 22 20 22 22 20 22 24 22 19 19 19 19 19 19 19 19 19 18 18 18 17 17 17 16 15 14 14 15 15 15 16 16 16 17 17 18 19 17 16 17 17 17 18 18 18 18 18 18 18 18 18 18 17 17 17 17 17 17 17 17 17 17 17 17 17 17 17
20 20 21 22 21 21 21 19 19 19 19 20 20 21 21 20 21 22 23 22 20 22 21 19 22 22 19 19 18 18 19 19 19 19 19 19 18 18 18 17 17 16 16 15 15 14 14 15 15 15 16 16 16 17 17 18 17 16 17 17 18 18 17 18 19 18 18 18 19 19 18 18 17 17 17 17 17 17 17 17 17 17 17 17 17 17
20 20 21 21 19 18 19 18 19 20 20 20 19 20 21 20 21 21 22 21 19 22 22 21 22 21 19 19 18 18 19 19 18 18 19 19 18 18 18 17 17 16 16 15 15 14 14 15 15 15 16 15 16 16 15 16 16 17 17 17 18 18 18 19 19 18 19 19 19 19 18 18 17 17 17 17 17 17 17 17 17 17 17 17 17 17
20 21 21 19 17 18 19 18 18 19 19 20 20 20 21 20 21 22 22 21 19 20 21 22 22 21 20 20 19 19 19 19 18 18 18 18 18 18 18 18 17 16 16 15 15 15 15 15 15 15 15 15 16 16 15 15 16 17 17 17 18 18 18 19 19 19 19 19 18 18 18 18 17 17 17 17 17 17 17 17 17 17 17 17 17 17
21 20 19 18 18 20 20 18 18 19 20 20 20 21 21 22 22 22 22 21 20 19 20 22 22 22 22 21 20 20 19 19 18 17 18 17 17 18 18 18 17 16 16 15 15 15 14 14 15 15 16 15 15 16 16 16 17 17 17 17 18 18 19 19 19 19 19 19 18 17 17 17 17 17 17 17 17 17 17 17 17 17 17 17 17 17
21 20 18 19 19 19 20 20 19 20 20 20 21 21 22 23 22 22 22 21 22 21 19 20 21 21 21 22 22 20 19 19 18 17 18 17 17 17 17 17 17 17 16 15 15 15 15 15 15 15 15 15 15 16 16 17 18 18 18 17 17 18 19 20 19 19 19 18 18 17 17 17 16 16 16 17 17 17 17 17 17 17 16 17 17 17
21 19 18 20 20 19 20 20 19 20 20 21 21 21 21 22 22 22 22 22 21 21 19 18 21 21 21 22 21 19 19 20 18 18 18 17 17 17 17 17 17 16 16 15 15 15 15 15 15 15 15 16 16 16 16 17 18 19 18 17 17 18 19 20 19 19 18 18 18 18 18 17 17 17 16 17 17 16 17 16 16 16 16 17 17 17
21 20 19 20 20 19 20 21 20 19 21 21 20 19 21 22 23 22 22 22 20 20 19 19 21 21 20 22 20 18 19 20 18 18 18 18 18 18 17 17 17 17 16 16 15 15 15 15 15 15 15 15 16 16 17 17 18 18 19 18 18 19 19 19 19 18 18 18 18 18 18 18 18 17 17 16 16 16 16 16 16 16 16 16 16 16
20 21 22 21 20 20 21 22 20 19 23 22 19 19 21 21 22 21 22 21 19 20 21 20 20 20 20 21 20 19 20 21 20 19 18 18 18 17 17 17 16 17 16 16 16 15 15 15 15 15 15 16 16 17 17 17 17 18 18 18 18 19 19 19 19 18 18 18 19 18 18 18 17 17 17 16 16 16 16 16 16 16 16 16 16 16
20 21 21 21 22 21 22 20 18 21 23 20 17 18 19 19 19 20 21 21 20 20 21 20 19 20 20 20 20 20 21 22 21 20 19 19 18 17 17 17 16 16 16 16 16 16 15 15 15 15 15 16 16 17 17 16 16 16 17 18 18 18 19 18 18 18 18 18 18 18 18 18 17 17 16 16 16 16 16 16 16 16 16 16 16 16
20 19 19 21 22 22 22 19 17 20 20 18 19 20 20 20 20 20 19 20 20 20 20 19 18 20 20 19 19 20 20 20 19 20 19 18 18 18 17 17 16 16 16 16 16 16 15 15 16 15 15 15 16 16 17 17 16 16 16 17 17 18 18 18 18 18 18 18 18 18 18 18 17 17 16 16 16 16 16 16 16 15 16 16 16 16
20 20 20 21 21 21 22 20 18 18 18 19 22 21 21 20 20 20 19 20 20 20 20 18 17 19 21 19 18 18 18 17 17 19 18 17 17 17 17 17 16 16 16 16 16 16 15 15 15 15 15 14 14 15 15 16 16 16 16 16 16 17 18 18 18 18 18 18 18 18 18 18 18 17 17 16 16 16 16 15 15 15 15 16 16 16
21 22 21 21 21 21 22 22 20 19 19 21 21 21 20 20 19 20 19 19 19 19 19 17 17 19 20 19 17 17 17 16 15 16 16 16 17 17 16 16 16 16 16 16 16 16 15 15 14 15 14 14 14 15 15 15 15 15 15 15 16 17 17 17 17 17 18 18 18 18 18 18 18 18 17 17 16 16 15 15 15 15 15 15 15 15
21 21 21 22 22 21 22 22 21 21 21 21 21 21 20 19 19 18 17 16 18 19 18 16 18 20 20 19 17 16 17 16 15 14 14 15 16 17 16 16 16 16 16 16 15 15 14 13 13 13 13 14 15 15 14 14 14 14 15 15 15 15 16 16 17 17 18 18 18 18 18 18 18 18 18 17 16 16 16 15 15 15 15 15 15 15
20 20 21 22 22 21 22 23 22 22 21 20 19 20 21 20 20 19 18 18 19 19 17 17 18 19 20 19 17 16 16 16 15 14 14 14 15 15 15 15 15 15 14 14 14 13 12 12 12 12 13 13 14 14 14 13 14 15 15 14 14 15 16 17 17 18 18 18 18 18 18 18 18 18 18 17 16 16 16 15 15 16 15 15 15 15
19 20 21 20 19 21 22 21 21 22 21 18 17 20 20 20 21 18 17 17 18 18 18 18 18 18 18 18 17 16 16 15 15 14 14 14 14 14 14 13 13 13 13 14 14 14 13 12 12 13 13 13 14 15 14 13 14 15 14 14 14 15 17 17 17 18 18 18 18 18 17 18 18 18 18 17 17 16 16 16 16 16 16 16 15 15
19 20 20 20 20 21 21 20 21 22 21 18 18 20 19 18 20 19 15 15 16 19 18 16 17 18 17 18 17 17 17 16 15 15 14 14 14 14 14 13 13 13 13 14 15 15 14 13 13 13 13 14 14 14 14 13 14 14 14 15 16 16 17 17 17 18 18 18 17 17 17 17 18 18 18 18 17 16 16 16 16 16 16 16 15 15
19 20 20 20 21 21 19 20 21 20 21 20 20 20 18 17 19 19 18 16 16 18 18 16 16 18 18 19 18 17 17 16 15 15 14 14 14 14 14 15 15 14 14 14 13 13 13 13 12 13 14 15 15 14 14 13 13 13 14 16 17 17 17 17 17 18 18 17 16 16 17 17 18 18 18 18 17 17 17 16 16 16 16 16 16 16
18 21 20 19 20 20 19 20 21 20 19 20 20 19 19 19 20 19 19 18 17 17 17 16 15 16 18 19 18 18 17 16 15 15 15 14 14 14 14 15 15 15 16 16 14 13 13 12 12 13 14 15 14 13 13 13 12 12 13 15 16 16 16 16 17 17 16 16 17 17 17 17 18 18 18 18 17 17 17 17 17 17 16 16 16 16
18 20 20 19 19 19 20 20 21 20 19 19 20 19 18 19 19 18 18 18 19 17 16 17 16 17 19 18 18 19 18 16 15 15 15 14 13 13 13 14 14 14 15 15 14 13 12 12 12 12 13 14 13 13 13 13 12 12 12 14 15 16 16 16 16 16 16 16 17 17 17 17 17 18 18 18 17 17 17 17 17 17 17 17 17 17
18 18 19 20 19 18 20 19 19 20 20 20 20 20 19 18 17 18 17 16 18 18 17 17 17 18 18 17 18 19 18 17 16 15 14 13 13 13 13 13 14 13 14 14 14 14 13 12 12 13 13 13 13 13 13 13 12 12 12 14 15 16 16 15 15 16 16 16 16 16 17 17 17 17 17 17 17 17 17 17 17 17 17 17 17 17
18 18 19 20 19 19 19 17 16 18 19 20 20 19 18 18 18 19 17 15 16 17 16 17 18 19 18 16 17 18 17 16 15 14 14 14 14 14 13 13 13 14 14 14 14 14 13 11 12 12 13 13 13 13 12 12 12 12 12 13 14 15 15 15 15 16 16 16 16 16 16 16 16 17 17 17 17 17 17 17 17 17 17 17 17 17
17 18 19 18 18 17 17 16 16 16 17 18 18 16 16 18 19 20 19 17 16 15 15 16 18 19 17 14 15 15 15 15 14 14 14 14 14 14 13 13 13 14 14 13 13 13 12 11 12 12 12 12 12 12 12 12 12 12 12 13 14 14 15 15 15 15 15 15 15 15 16 16 16 17 17 17 17 17 17 16 17 17 17 17 17 17
17 18 18 17 17 17 18 18 17 16 17 18 17 15 15 17 17 18 18 17 17 16 16 17 18 19 17 13 13 14 14 14 14 14 15 14 14 13 13 13 13 13 13 13 13 12 11 11 12 12 12 12 12 12 12 12 12 12 12 12 13 14 14 14 14 14 14 14 15 15 16 16 16 17 17 17 17 17 16 16 16 17 17 17 16 16
19 18 17 17 16 17 17 18 18 18 17 17 16 14 14 15 15 16 15 16 17 16 16 18 18 18 16 13 13 14 14 14 14 14 14 14 14 14 13 13 13 13 14 13 13 13 13 12 11 11 12 12 12 12 12 12 12 11 12 12 13 13 13 13 14 14 14 14 15 16 16 16 16 16 16 17 17 16 16 16 16 16 17 16 16 16
18 16 17 18 17 16 16 16 17 17 16 15 15 15 14 15 16 17 16 17 18 16 15 18 19 18 16 14 14 15 14 15 14 14 14 13 14 14 13 14 13 14 14 14 14 14 14 13 12 11 13 13 12 12 12 12 11 11 12 12 12 13 13 13 14 14 14 15 15 15 16 16 16 16 16 16 16 15 15 15 16 16 16 16 16 16
17 14 14 17 17 17 17 16 15 16 16 15 16 16 15 14 15 17 17 18 17 15 15 17 17 17 16 15 14 14 14 15 14 14 14 14 14 14 13 13 13 13 14 13 13 14 14 14 13 11 12 13 13 12 12 12 12 12 12 12 12 13 13 13 14 14 15 15 15 15 15 15 15 15 15 14 14 14 14 14 15 15 15 15 16 15
18 15 13 15 15 14 15 15 15 16 16 16 16 16 16 15 16 18 18 17 16 16 17 16 14 16 16 14 13 13 13 13 14 14 14 14 13 13 13 13 13 13 13 13 13 13 13 14 13 11 12 13 13 13 13 13 13 13 13 13 13 13 13 13 14 14 14 15 15 15 15 15 15 14 14 14 14 14 14 14 14 14 14 15 15 15
18 16 13 14 14 13 13 14 15 16 15 15 15 16 16 15 17 18 17 15 15 17 18 16 14 15 14 12 12 12 11 12 13 12 13 13 13 13 13 13 14 13 13 13 13 13 13 13 12 11 11 12 13 14 14 14 13 13 13 14 13 13 13 14 14 14 14 14 14 14 14 14 15 14 14 14 14 14 14 15 15 14 14 14 14 14
16 15 13 14 14 13 13 14 14 15 14 14 14 14 14 14 15 15 14 12 13 15 15 14 14 13 11 10 10 10 10 10 11 11 12 12 12 13 13 13 13 13 13 13 13 12 12 12 11 10 11 11 12 13 13 14 14 14 14 14 14 14 14 14 14 14 14 15 15 15 15 14 15 15 15 15 15 15 14 14 14 14 14 14 14 14
16 15 13 14 15 13 13 13 14 15 15 14 14 12 12 14 14 14 13 11 13 14 11 12 15 13 10 10 9 9 9 10 11 11 10 10 11 13 14 13 13 12 12 12 12 12 12 11 9 9 11 11 11 12 12 12 13 14 15 14 14 14 14 14 14 14 14 14 14 15 15 14 14 15 15 15 15 15 15 15 15 14 14 14 14 15
16 14 13 14 15 13 13 13 13 14 14 14 14 12 12 14 13 12 11 10 11 13 12 13 14 12 10 10 9 8 9 9 9 9 9 8 9 11 13 12 12 11 11 11 10 10 11 11 8 7 9 11 11 12 12 12 12 13 14 14 14 14 14 14 14 14 14 15 15 15 15 15 15 15 15 15 15 16 16 15 15 15 15 15 15 15
14 14 14 15 15 14 12 11 12 14 15 14 13 11 10 11 11 10 10 8 8 10 12 14 13 10 9 9 9 8 8 8 8 8 8 8 8 8 10 9 9 9 9 9 9 9 9 9 7 7 9 10 11 11 11 12 12 12 13 14 15 15 15 15 15 15 15 15 15 15 15 15 15 15 15 15 15 16 15 15 15 15 15 15 15 15
13 14 14 14 15 14 11 11 12 13 14 13 10 8 8 10 10 10 9 8 7 8 9 10 9 8 8 8 8 8 8 8 8 7 7 8 7 8 8 8 8 8 8 8 8 7 7 7 7 8 9 10 11 11 12 12 12 12 13 14 15 15 15 15 15 15 15 15 15 15 15 15 15 15 15 15 15 15 15 15 15 15 15 15 15 15
14 14 13 12 13 12 11 12 13 13 12 10 8 7 8 8 9 9 8 7 7 8 8 8 8 8 8 8 8 8 8 8 8 8 7 7 7 8 8 8 8 8 8 9 9 8 7 8 8 9 10 11 11 12 12 12 12 12 12 13 14 14 15 15 15 15 15 15 15 15 15 15 15 15 15 15 15 15 15 15 15 15 15 15 15 15
14 14 12 12 12 11 11 12 13 11 9 9 9 9 9 8 9 10 10 9 8 8 8 8 8 8 8 8 8 9 9 9 9 8 8 7 7 7 8 8 8 8 8 8 8 8 9 9 10 10 10 11 11 12 12 12 12 12 12 12 12 13 13 14 14 14 14 14 14 14 14 15 15 15 15 15 15 15 15 15 14 14 14 14 14 14
13 14 14 12 11 11 11 10 9 9 9 9 10 9 8 8 8 9 10 9 8 8 8 8 9 9 9 9 9 9 9 9 9 9 8 7 7 7 7 6 7 7 6 7 8 8 9 9 10 10 11 11 12 12 13 12 13 13 13 13 12 12 12 12 12 13 13 13 14 14 14 14 14 14 14 14 14 14 14 14 14 14 14 14 13 13
12 13 14 13 11 10 10 9 8 9 10 10 9 8 8 8 7 7 9 10 9 8 8 8 9 9 10 10 10 9 10 10 9 8 8 7 7 6 6 6 6 6 6 7 9 9 9 9 10 10 10 11 11 12 12 12 12 12 13 13 13 13 13 12 12 12 12 12 13 13 14 14 14 14 14 14 14 13 13 13 13 13 13 13 13 13
11 11 12 13 11 10 11 11 10 10 9 8 8 8 7 7 6 7 9 10 9 8 7 7 8 8 8 9 9 9 10 10 8 7 7 7 6 6 6 6 6 7 7 8 9 9 10 10 10 10 10 10 11 11 11 11 11 11 12 12 12 13 13 13 13 13 12 12 12 13 13 13 14 14 14 14 13 13 13 13 13 13 13 13 13 12
11 10 11 12 11 10 11 11 9 8 8 7 7 7 7 6 6 9 11 10 8 8 7 7 7 7 7 8 8 9 9 8 8 8 7 6 6 5 6 6 6 6 7 8 9 9 10 10 10 10 10 10 10 11 11 11 11 11 11 11 12 12 12 13 13 13 13 13 13 13 13 13 13 13 13 13 13 13 13 13 13 12 12 12 12 12
9 9 9 9 9 9 10 9 8 7 7 7 7 7 7 7 8 10 9 8 7 7 7 7 7 7 7 8 8 8 7 7 7 7 6 6 6 6 5 6 6 7 7 8 8 8 9 9 9 9 9 9 10 10 11 11 11 11 11 11 11 12 12 13 13 13 13 13 13 13 13 13 13 13 13 13 13 13 13 13 12 12 12 12 12 12
8 8 8 8 8 8 8 8 8 7 6 6 7 6 7 9 9 8 7 6 7 7 7 7 7 7 7 8 7 7 7 7 7 7 7 7 7 6 5 6 7 7 8 8 8 8 8 8 8 9 9 9 9 10 10 10 11 11 11 11 12 12 12 13 13 13 13 13 13 13 13 13 13 13 13 13 13 13 13 12 12 12 12 12 12 12
8 8 7 7 7 7 7 7 8 7 6 6 7 7 8 8 7 6 6 6 7 7 7 7 7 7 7 8 7 7 7 7 7 7 7 7 6 5 5 6 6 6 7 7 7 8 8 8 8 8 8 9 9 9 9 10 10 11 11 11 12 12 12 12 12 12 13 13 13 13 13 13 13 13 13 13 13 13 13 12 12 12 12 12 12 12
8 8 7 7 7 7 8 7 7 6 6 6 7 7 7 6 6 6 7 7 7 7 7 7 7 7 7 8 8 8 8 8 8 7 7 7 6 4 4 5 6 6 7 7 7 7 7 7 7 8 8 8 8 9 9 9 9 10 10 11 11 12 12 12 12 12 12 13 13 13 13 13 13 13 13 13 13 13 13 12 12 12 12 12 11 11
7 7 7 7 6 6 7 6 5 6 6 6 6 7 6 7 7 7 7 7 7 7 7 8 8 7 7 7 7 8 7 7 7 7 7 7 6 4 3 4 5 5 5 6 6 7 7 7 7 7 7 8 8 8 8 8 8 9 10 10 11 11 11 12 12 12 12 13 13 13 13 13 12 13 13 13 12 12 12 12 12 12 12 11 11 11
7 7 7 6 6 6 6 6 6 6 6 6 6 6 6 7 8 7 8 8 7 7 7 7 8 7 7 6 7 7 7 7 6 6 6 6 6 4 3 4 5 4 5 5 5 5 6 6 6 6 7 7 7 7 8 8 8 8 9 10 10 10 10 11 11 12 12 12 13 13 13 12 12 12 12 12 12 12 12 12 12 12 12 11 11 11
7 7 7 7 6 6 6 6 6 6 6 6 6 6 6 6 6 7 7 8 7 7 7 7 7 7 6 6 7 7 6 6 7 6 6 6 5 3 2 3 3 4 4 4 4 4 4 4 4 5 5 6 6 7 7 7 8 8 8 9 9 9 9 10 10 10 11 11 12 12 12 12 12 12 12 12 12 12 12 12 12 12 11 11 11 11
7 7 7 6 6 6 6 6 6 6 6 6 6 6 6 6 6 6 6 6 6 6 5 4 5 6 6 6 6 6 6 6 6 5 5 5 3 1 1 2 2 2 3 3 3 3 3 3 3 3 3 4 5 5 6 7 7 7 8 8 8 9 9 9 9 10 10 11 11 11 11 12 12 12 12 12 11 11 11 11 11 11 11 11 11 11
6 7 6 6 6 6 6 6 6 6 6 6 6 6 6 6 6 6 6 6 6 6 5 4 3 4 4 4 4 4 5 5 3 2 3 3 1 -0 1 1 1 1 1 2 2 2 2 2 2 2 3 3 4 4 4 5 6 7 7 7 8 8 8 8 9 9 9 10 10 10 11 11 11 11 11 11 11 11 11 11 11 11 11 11 11 10
6 6 5 5 6 6 7 7 7 7 7 7 6 6 6 5 6 6 6 6 6 7 6 6 4 3 2 1 1 2 4 3 1 -0 1 1 -0 -0 1 0 0 0 0 0 1 1 1 1 1 1 2 2 3 3 3 4 5 5 6 6 6 6 7 7 8 8 9 9 10 10 10 10 10 10 10 10 11 10 10 10 10 10 10 10 10 10
7 7 7 7 7 7 7 7 7 7 7 7 6 6 6 5 5 6 6 6 6 5 4 5 5 4 2 1 0 1 1 1 0 -0 -1 -1 -0 0 0 -0 -0 -0 -0 -0 -0 -1 -0 -0 -0 -0 0 1 2 2 2 3 3 4 5 5 5 5 5 6 6 7 8 9 9 10 10 10 10 10 10 10 10 10 9 9 9 9 9 9 9 9
Height
751 756 761 760 758 757 755 758 759 761 763 762 765 766 767 767 762 755 749 747 748 748 752 755 750 747 750 756 756 753 754 757 758 759 760 761 763 764 767 768 770 771 772 774 776 776 774 776 780 780 779 779 781 784 785 785 788 792 793 794 795 796 797 797 797 799 800 802 804 806 807 809 811 812 813 814 816 817 818 818 819 819 819 820 820 820
753 759 760 753 753 755 756 761 763 764 764 764 767 765 765 767 761 753 748 748 749 748 754 758 752 753 758 759 758 756 756 758 758 759 760 760 762 764 766 768 769 771 772 774 776 777 775 775 778 779 779 780 781 782 783 782 785 789 792 793 794 795 796 796 796 798 799 801 802 804 807 809 811 812 813 814 815 816 817 818 819 820 820 821 821 821
759 760 752 749 758 761 760 763 762 762 764 766 769 767 764 764 760 754 749 750 751 747 751 755 753 756 761 759 760 759 758 758 759 760 760 761 763 765 765 767 768 770 772 774 775 776 776 775 777 778 778 780 780 782 783 784 786 789 791 792 793 794 796 795 796 798 799 800 802 804 807 809 810 812 813 814 815 816 817 818 819 820 821 822 822 823
764 757 749 753 760 760 760 764 763 763 765 765 765 765 762 761 761 756 750 751 754 752 752 752 751 756 758 758 759 759 759 759 761 762 762 764 765 766 765 765 767 770 771 772 773 774 774 774 776 776 777 779 781 782 783 786 788 789 790 792 793 795 796 795 796 798 799 800 802 805 807 809 810 811 813 814 815 816 817 818 819 820 821 822 823 824
757 751 751 756 757 755 757 763 764 763 764 764 763 762 758 755 756 756 753 753 754 757 757 752 753 757 755 758 760 758 759 760 761 764 764 766 767 767 767 766 767 769 770 772 773 773 773 773 773 774 776 778 780 782 784 786 789 790 791 793 794 795 795 795 797 798 799 801 803 805 808 809 811 812 813 814 815 816 817 818 819 820 822 823 824 824
750 749 752 753 755 756 755 757 759 759 762 762 758 756 752 749 752 754 754 755 755 759 762 760 765 767 758 755 759 760 761 761 763 764 765 767 767 767 768 768 767 768 769 771 772 773 773 773 772 773 775 777 779 781 784 786 788 790 791 793 794 796 795 795 798 799 801 802 804 806 808 809 810 812 814 815 816 817 818 819 820 821 822 823 824 825
748 749 750 749 752 756 756 756 756 757 761 761 754 752 753 751 751 753 752 755 760 763 766 765 768 773 766 754 759 765 763 762 765 764 763 765 766 767 768 768 767 768 768 769 771 772 772 772 772 772 774 776 778 781 783 785 786 788 790 792 793 794 794 796 799 801 803 804 805 806 808 809 810 812 814 816 817 818 819 820 820 821 823 824 825 825
745 746 749 748 750 755 754 751 752 755 756 756 754 753 753 750 749 753 753 756 763 764 765 766 763 771 772 760 761 768 764 763 766 765 764 764 764 765 766 767 766 765 766 767 768 769 770 770 770 771 773 775 777 780 781 782 783 784 786 789 792 793 794 796 799 802 804 805 806 807 808 810 811 812 814 816 818 819 820 820 821 822 823 824 825 826
743 743 744 745 749 753 747 741 746 750 747 749 754 755 752 751 752 755 754 758 768 768 764 767 767 772 776 767 763 767 764 762 764 764 763 762 763 764 764 764 764 763 764 765 765 766 766 767 769 771 773 774 776 776 777 779 781 782 785 787 790 792 794 797 799 803 805 806 806 807 809 810 812 814 815 817 818 819 820 821 821 822 823 824 825 826
742 741 739 741 745 745 741 743 748 743 742 749 756 757 756 760 762 760 759 759 766 772 769 771 774 774 777 773 767 765 762 760 760 761 761 760 760 761 761 762 762 762 762 762 762 763 764 766 769 772 773 774 774 774 776 779 782 784 787 789 791 794 796 798 800 803 804 805 806 808 809 811 813 815 816 818 819 820 821 821 822 823 823 824 825 826
740 740 740 738 738 737 737 747 752 746 747 751 752 753 756 761 761 763 768 764 768 778 774 776 780 775 777 780 776 769 764 765 764 759 760 761 759 758 759 759 760 760 761 760 761 762 765 768 771 773 774 775 775 777 779 781 783 786 790 793 794 796 798 799 801 803 805 806 807 809 810 812 814 815 817 818 819 821 822 822 823 823 824 824 825 826
741 740 740 735 734 736 736 744 752 751 752 750 748 752 759 765 766 768 772 771 778 784 776 779 784 776 775 780 780 774 769 771 770 762 761 764 761 758 757 757 758 759 759 760 761 763 767 770 773 775 777 779 781 783 785 785 785 787 791 794 796 798 799 800 802 804 806 807 808 810 811 812 813 815 816 818 819 821 822 823 823 824 824 825 825 826
742 738 739 735 733 734 735 743 751 750 750 750 750 756 766 776 780 781 784 785 786 784 778 783 783 776 774 774 776 776 770 770 772 767 765 764 761 758 758 757 757 758 759 760 762 766 771 774 776 779 780 783 786 787 787 788 788 789 793 796 798 800 801 802 804 806 807 808 809 809 810 812 813 815 816 817 819 821 822 823 823 824 824 825 826 827
746 742 738 734 733 732 733 741 748 749 749 749 751 756 767 782 789 794 801 802 793 782 782 786 781 776 776 772 772 774 770 769 769 768 766 764 760 758 759 759 758 760 762 764 768 772 776 778 780 783 785 786 788 787 788 791 791 791 794 797 800 802 804 805 806 807 808 808 808 809 810 812 813 815 816 817 819 821 822 823 824 824 825 825 826 828
756 753 741 734 736 733 731 734 739 743 747 752 755 754 760 770 777 787 792 790 787 784 785 786 781 778 776 773 772 771 770 770 769 768 767 764 762 759 760 763 764 767 769 769 772 775 778 780 782 785 787 790 791 789 791 794 792 791 795 799 803 806 807 807 806 806 807 807 808 809 811 812 814 815 816 818 819 821 822 824 824 825 826 826 827 828
761 754 738 735 737 732 731 734 734 738 747 759 760 755 757 756 759 780 792 787 785 785 786 785 782 781 777 772 773 772 771 771 770 769 766 765 765 763 764 768 769 772 773 771 771 774 776 778 782 786 788 790 792 790 793 796 793 793 796 798 802 807 808 808 807 806 807 808 808 809 810 812 813 815 816 818 820 821 823 824 825 825 826 827 828 829
759 751 738 737 736 732 734 735 733 734 744 758 759 754 758 756 754 774 795 798 792 785 788 791 785 781 778 773 771 772 772 772 772 771 769 768 767 766 769 770 770 772 774 775 773 773 773 773 778 786 789 790 790 791 793 794 793 795 795 794 798 803 806 807 807 806 806 807 808 808 809 811 813 815 816 818 820 821 823 824 825 826 827 828 829 830
750 748 742 739 736 734 736 735 733 734 739 749 754 752 757 761 758 765 781 795 796 788 789 795 792 785 782 777 773 772 773 774 774 773 772 771 769 768 769 767 768 770 772 777 779 776 773 771 774 781 785 785 786 789 792 792 793 795 795 794 797 800 802 804 806 805 805 806 808 808 809 811 812 814 816 817 819 821 822 824 825 826 827 828 829 830
746 748 746 743 741 738 737 737 739 740 739 741 745 747 753 759 762 766 775 785 791 795 793 794 799 794 781 775 772 771 773 775 776 775 774 774 772 772 771 768 769 770 769 775 781 780 775 773 776 779 780 782 784 788 792 793 795 797 799 799 799 800 803 804 805 804 805 806 807 807 808 809 811 813 815 817 819 820 822 823 825 826 827 828 829 830
746 749 750 745 743 742 740 742 746 746 745 743 744 750 754 759 763 768 774 775 778 793 798 792 794 788 774 771 770 767 771 774 775 776 775 775 775 774 773 771 772 772 770 773 779 781 776 774 776 777 778 780 783 788 792 794 796 798 801 802 800 801 803 803 803 804 804 805 805 805 806 808 810 811 814 816 818 820 821 823 824 826 827 828 829 831
745 750 752 746 744 747 747 748 750 748 747 746 747 753 756 763 769 768 775 781 776 783 794 793 789 779 769 769 766 763 767 770 773 776 776 777 776 774 774 773 772 773 772 773 775 776 775 774 776 777 778 780 783 788 792 794 797 797 799 801 800 800 800 801 802 803 803 803 803 804 805 807 809 811 813 815 817 819 821 823 825 826 827 828 829 830
743 748 751 750 749 751 752 754 754 750 748 746 748 755 759 763 767 766 778 789 781 780 789 790 781 771 767 770 766 764 767 768 773 777 777 777 776 776 775 774 774 773 772 773 774 773 774 775 777 778 780 782 784 787 791 793 795 796 797 799 800 800 799 800 801 801 801 802 802 804 806 807 809 811 813 815 817 819 821 823 825 826 827 828 829 830
740 744 750 757 758 758 757 755 755 754 752 750 753 762 765 761 760 761 771 780 781 787 792 788 779 769 769 774 771 769 771 771 773 775 775 776 777 776 776 775 775 775 774 775 775 775 776 777 779 781 782 783 783 785 788 791 794 795 797 798 798 799 798 798 799 799 800 801 802 804 806 807 809 811 813 815 816 819 821 823 825 826 827 828 829 830
739 745 755 762 761 758 754 751 752 754 753 754 760 767 769 765 762 763 768 772 777 784 785 783 782 771 768 776 776 772 773 773 774 774 774 776 777 777 778 777 778 778 777 777 776 778 779 780 782 782 781 782 783 785 787 790 793 796 797 798 798 798 798 797 798 799 800 801 802 804 806 807 809 810 812 814 816 818 820 822 824 825 826 828 829 830
736 747 755 763 769 768 764 761 757 754 756 760 766 772 772 770 769 769 773 774 774 780 780 776 777 771 769 777 775 772 774 774 775 776 775 777 777 778 780 779 780 780 778 778 779 780 780 781 783 782 781 783 784 785 788 789 792 795 796 797 797 797 798 798 798 799 800 801 802 804 805 807 808 809 811 813 815 817 820 822 824 825 826 827 829 830
739 753 754 758 769 773 772 771 764 759 764 768 770 772 771 772 769 766 771 771 770 783 785 774 769 769 771 776 775 774 775 774 776 777 777 779 779 779 780 780 780 780 779 780 781 781 781 781 781 782 782 783 785 788 789 790 792 793 795 796 797 798 798 798 799 799 800 801 802 803 805 806 807 808 810 812 815 817 819 821 823 824 825 827 828 828
745 761 761 755 758 761 763 766 765 762 766 770 771 770 770 774 772 766 769 770 773 784 785 775 773 772 771 777 778 777 778 776 777 778 777 779 780 780 781 781 781 781 781 781 781 781 782 781 781 782 782 783 786 789 790 791 792 793 794 795 796 797 798 799 800 800 800 801 802 803 804 805 807 809 811 813 815 817 819 821 823 824 825 826 827 828
742 758 765 762 763 767 766 765 765 762 763 768 771 769 769 773 769 763 765 771 776 780 777 777 783 777 774 782 784 782 784 781 780 781 781 781 782 782 783 782 782 783 783 783 784 783 784 783 783 784 783 784 786 788 789 791 792 793 794 795 796 797 798 799 800 800 800 801 802 803 804 806 808 810 812 815 816 818 819 821 823 825 825 825 826 827
743 756 765 766 769 774 771 767 765 764 768 772 771 770 771 770 766 763 768 777 776 771 768 775 783 780 780 788 789 788 789 787 785 786 785 783 784 784 784 784 783 784 784 785 786 786 786 786 786 787 787 787 788 789 789 789 791 793 794 795 796 797 798 799 799 800 801 802 803 804 805 807 809 811 813 815 816 818 818 820 822 824 824 825 825 826
748 759 767 766 768 773 772 771 769 767 772 776 776 778 779 775 774 772 778 787 783 774 777 780 779 784 792 794 794 794 793 791 790 789 788 787 787 786 785 786 787 787 788 788 789 789 790 789 789 790 790 791 792 792 791 791 791 792 793 796 797 797 798 799 799 800 801 802 803 804 805 807 809 810 812 813 815 816 817 818 820 821 822 823 824 824
746 761 769 764 767 774 774 774 774 770 772 775 779 785 783 776 777 777 782 791 785 779 790 788 777 785 797 798 797 797 794 791 791 791 793 794 792 788 786 788 790 791 792 793 793 794 794 793 793 793 794 794 794 794 794 794 793 793 794 796 798 798 799 799 800 801 802 803 803 804 805 807 808 809 811 812 814 815 816 817 818 819 820 821 821 822
748 763 770 764 766 776 778 779 778 774 774 775 776 783 784 778 779 784 790 797 790 782 787 784 779 789 798 798 799 799 796 795 796 798 799 798 797 793 790 791 793 794 796 797 797 797 797 797 797 797 797 796 796 796 796 796 796 796 797 799 799 800 800 801 802 803 803 804 804 805 806 807 808 809 810 811 813 814 815 816 816 817 819 819 820 821
757 760 763 763 766 775 784 786 783 776 775 777 781 790 795 791 791 793 797 806 806 798 787 782 787 799 802 800 801 802 801 801 802 803 803 801 801 799 797 797 798 799 799 800 800 801 801 801 800 799 799 799 798 799 798 798 799 799 800 801 801 801 802 802 804 804 805 806 806 806 806 807 808 809 810 811 812 813 814 814 815 817 818 819 820 820
763 759 764 768 766 774 787 789 784 780 778 783 795 803 801 796 794 794 800 808 811 806 799 796 801 806 804 803 804 804 805 806 807 807 806 805 804 803 802 803 802 803 803 802 803 803 803 804 803 802 801 801 801 801 801 800 801 801 802 802 803 803 803 804 805 805 806 806 807 807 807 808 808 809 810 810 811 812 813 814 815 817 818 819 821 821
761 762 770 774 771 780 790 786 782 784 787 793 804 806 801 800 800 799 804 810 809 806 806 805 806 806 805 806 806 805 807 807 807 807 807 807 807 806 805 805 804 805 805 804 804 805 805 806 805 803 803 803 803 803 802 802 803 803 804 804 805 805 805 805 806 806 807 807 808 808 808 809 809 809 810 811 812 813 814 815 816 818 819 821 822 823
761 763 771 778 781 785 787 782 782 791 799 801 802 801 800 802 801 796 796 803 807 807 807 806 806 807 806 806 806 805 806 806 805 807 809 810 810 808 808 808 808 807 807 807 807 807 807 807 807 805 804 804 804 804 804 805 805 805 805 807 807 807 807 808 808 809 809 810 810 810 810 811 811 811 812 813 813 814 815 816 818 819 821 822 823 824
762 762 764 774 784 787 788 794 802 805 805 801 799 802 804 803 804 801 798 802 808 808 808 807 805 805 805 804 805 806 805 803 805 809 812 812 812 811 810 810 810 809 808 808 808 808 808 808 808 807 805 805 806 806 806 807 807 807 808 808 808 808 809 810 811 811 812 812 812 812 812 813 813 814 814 815 815 816 817 817 819 820 821 822 823 824
765 764 762 766 783 792 792 801 810 806 799 798 801 805 806 806 808 807 802 803 806 807 809 808 804 804 804 802 804 805 803 803 810 815 815 814 814 812 811 811 811 811 810 808 808 808 808 808 808 807 807 806 807 807 807 808 809 809 810 809 809 809 810 812 812 812 812 813 813 814 814 814 815 815 815 816 816 817 817 818 818 819 820 821 822 823
768 772 768 765 779 790 784 785 797 798 797 804 808 807 806 808 809 806 801 802 806 808 811 810 808 809 808 806 806 804 802 807 817 819 817 816 815 814 813 813 812 812 812 811 810 810 810 810 810 809 808 808 809 809 809 809 810 811 811 811 810 810 811 812 812 811 813 814 814 814 815 815 815 815 816 816 817 817 817 818 818 819 820 820 821 822
773 777 776 772 780 788 782 783 798 804 805 811 811 807 807 809 806 801 798 802 808 811 812 812 812 812 811 809 808 807 807 813 819 819 817 817 816 815 815 814 814 814 813 813 813 812 812 812 812 811 811 811 811 811 810 810 811 811 811 811 811 811 811 811 811 811 813 814 814 814 815 815 815 815 815 816 816 817 817 817 818 818 819 820 820 821
786 787 789 789 791 792 789 792 804 811 811 811 810 808 807 805 802 801 803 809 814 814 813 814 813 813 812 810 809 812 815 817 817 817 818 817 816 815 815 815 815 815 814 814 814 814 814 813 814 814 814 813 813 812 812 811 812 812 811 811 810 810 810 810 811 811 811 812 812 813 813 814 814 814 815 815 815 816 816 816 817 817 818 819 819 820
795 796 798 800 800 802 802 802 805 811 813 811 809 809 804 801 804 809 813 817 816 814 815 816 814 814 814 812 812 815 816 816 816 817 817 816 816 816 815 815 815 815 814 815 814 814 814 814 814 815 815 815 815 814 813 813 812 811 811 810 809 809 809 809 809 810 810 810 811 811 812 812 813 813 814 814 814 815 815 816 816 816 817 818 818 819
800 801 804 806 806 807 807 806 805 809 814 812 809 807 805 807 813 817 817 817 816 815 817 817 815 816 814 813 814 815 815 816 816 816 816 816 816 816 816 816 816 815 815 815 815 814 814 814 814 814 814 815 815 814 814 812 811 811 810 809 808 808 808 808 808 808 809 809 809 809 810 810 811 811 812 813 813 814 814 814 815 815 816 816 817 818
801 802 804 809 809 805 804 809 813 815 816 813 809 809 811 814 816 816 816 816 817 816 816 816 817 818 816 815 815 815 815 815 815 815 815 815 816 817 817 817 816 816 816 816 815 815 814 814 814 814 813 814 814 813 813 812 811 810 809 808 808 807 806 806 806 806 807 807 807 807 808 808 809 810 811 811 812 812 812 813 813 814 814 815 815 816
804 803 803 808 813 811 809 814 819 818 816 815 812 812 815 815 815 816 816 817 817 817 817 816 816 816 817 817 816 815 816 816 815 815 815 814 815 816 816 816 817 816 816 816 815 815 815 814 814 814 813 813 813 812 812 812 811 810 809 808 807 806 805 805 804 804 804 804 805 805 805 806 807 807 808 809 810 810 810 811 812 812 813 813 814 814
807 806 805 809 814 815 814 815 817 817 817 817 815 815 815 814 815 815 815 815 816 816 816 816 815 816 817 817 817 816 816 816 816 816 815 815 815 815 814 815 816 816 816 816 815 815 814 814 814 813 812 812 812 812 811 811 810 809 808 807 807 806 805 804 803 802 802 802 802 802 803 803 804 805 806 807 807 808 808 809 810 810 811 811 812 812
807 806 808 810 813 815 816 816 816 816 817 817 816 816 816 816 816 816 815 815 816 816 817 817 816 817 817 817 817 816 816 816 816 815 815 815 815 814 814 815 815 815 815 815 815 814 814 813 813 812 812 811 811 811 810 809 809 808 807 806 806 805 804 803 802 801 800 800 800 800 800 801 802 802 803 804 805 806 806 807 808 808 809 809 810 810
807 805 809 813 814 815 816 816 817 817 818 818 818 817 817 816 817 817 817 817 817 817 817 817 817 817 817 817 817 817 816 816 816 816 816 816 816 815 815 815 815 815 815 814 815 814 813 813 812 811 811 810 810 809 808 807 807 806 806 805 804 804 803 802 801 801 800 800 799 799 799 799 800 800 801 802 802 803 804 805 805 806 806 807 808 809
810 808 812 816 816 817 817 817 817 818 818 818 818 818 817 817 816 816 816 817 817 816 817 816 816 816 816 816 816 816 816 816 817 817 817 817 817 816 816 815 815 815 814 814 814 813 812 812 811 810 809 808 807 807 806 806 805 805 804 803 803 802 801 800 800 799 799 799 798 798 798 798 799 799 800 800 800 801 802 802 803 803 804 805 806 806
811 811 816 818 816 816 814 813 815 816 815 816 817 817 817 817 817 817 816 816 816 816 817 817 816 816 816 817 817 817 817 817 818 818 818 818 818 817 816 815 815 814 813 813 812 811 811 810 809 808 807 806 805 805 804 803 803 803 802 802 801 800 799 798 797 797 796 797 797 797 797 797 797 797 798 798 798 799 799 800 801 801 802 803 804 804
809 810 813 812 812 813 811 811 814 814 813 814 815 815 817 818 817 817 817 817 817 817 817 817 817 816 817 818 817 817 818 818 818 818 818 818 817 816 816 815 814 812 812 811 810 809 808 807 807 806 805 804 803 803 801 801 800 800 800 800 799 798 797 796 795 794 793 794 794 794 794 794 794 794 795 795 796 797 797 798 799 799 800 801 802 802
Wind_Speed
3 3 1 4 6 6 7 6 5 4 4 4 3 3 3 3 4 6 5 5 1 4 1 3 3 3 5 5 5 6 7 8 8 7 7 7 7 7 6 6 6 5 5 8 13 16 20 20 17 18 21 24 25 23 22 23 24 23 20 19 18 18 18 18 16 14 14 14 14 13 10 9 9 11 11 11 10 9 8 7 6 6 7 7 6 5
5 3 5 8 9 7 6 5 4 4 3 3 3 2 3 3 4 6 4 6 3 3 3 1 4 2 3 3 3 6 7 7 8 8 8 10 9 7 6 7 7 5 4 8 11 14 19 20 17 18 19 22 24 24 24 26 25 21 19 19 20 20 19 17 15 16 16 15 15 14 13 11 10 11 11 11 10 9 8 6 5 5 5 5 5 5
4 2 10 9 6 5 3 4 5 4 3 3 2 2 2 3 3 6 5 6 4 3 2 1 6 2 4 3 2 2 3 3 4 5 5 8 8 7 8 8 7 6 6 8 10 12 18 20 18 19 20 21 22 21 19 20 20 20 20 21 20 20 19 16 15 15 15 15 14 13 14 13 12 11 11 10 10 9 8 7 6 5 5 5 4 4
0 5 8 5 7 6 2 2 6 5 2 2 3 3 2 4 0 2 4 6 5 3 2 4 5 2 5 2 1 2 0 3 4 4 4 5 5 3 6 6 7 7 8 9 10 10 15 18 18 19 21 20 17 16 16 16 17 18 20 20 19 19 17 15 14 14 14 15 14 12 13 14 13 12 11 11 10 10 9 7 6 5 6 5 4 4
5 7 3 6 7 7 3 2 6 5 1 2 3 5 3 4 3 3 3 5 5 5 4 5 5 4 5 2 3 2 2 4 4 6 6 5 2 1 2 4 5 7 7 9 11 9 11 14 17 20 21 19 16 15 15 15 16 16 17 18 18 18 16 14 13 13 15 16 15 14 14 14 14 14 13 12 11 10 8 7 6 5 6 5 4 4
7 6 5 6 4 5 5 4 5 7 2 3 4 8 7 5 5 3 4 5 4 5 4 5 5 3 6 3 3 3 2 2 2 6 7 6 4 4 4 4 5 5 6 8 8 8 9 12 15 18 18 16 15 15 14 14 16 16 16 17 18 18 16 13 13 14 16 17 17 16 17 17 17 16 14 12 11 10 8 7 7 7 6 4 4 5
4 2 4 5 5 6 5 3 5 6 6 1 5 7 7 5 5 2 2 4 2 1 2 3 5 1 6 5 3 5 2 0 1 5 6 6 6 5 5 6 6 6 6 7 7 7 9 11 13 14 16 17 15 14 13 15 16 17 17 18 20 19 16 14 15 15 16 17 17 16 16 17 17 16 14 11 10 9 9 9 9 8 7 6 5 6
4 1 4 3 4 5 4 3 6 8 8 2 5 7 7 6 5 4 4 4 1 2 2 5 4 4 1 4 5 4 1 1 3 5 6 5 6 6 6 7 7 8 8 7 8 9 9 12 14 15 16 17 14 13 15 17 18 19 20 21 21 19 17 17 17 17 17 16 16 15 15 15 15 14 13 12 10 10 10 11 10 9 8 8 7 6
3 2 2 4 5 3 4 5 8 10 5 5 5 7 6 5 5 4 6 4 1 1 2 6 4 3 2 5 5 4 3 2 5 6 7 6 6 6 7 8 9 9 8 9 10 10 11 14 16 16 16 16 16 18 18 18 19 19 21 22 22 20 20 19 18 17 17 15 14 15 15 15 14 13 13 13 12 12 12 11 10 9 8 7 7 7
2 4 5 7 4 4 5 3 8 10 3 4 6 6 5 5 5 5 5 3 3 3 3 6 3 2 3 5 4 4 3 3 6 5 6 7 7 7 8 8 9 8 8 9 10 10 12 15 16 15 16 17 19 21 18 15 13 14 17 20 21 20 20 20 19 18 17 16 15 16 16 16 15 13 13 14 13 13 12 11 9 8 7 7 7 8
3 2 3 4 4 6 4 2 3 5 4 5 6 6 7 6 5 4 3 4 5 2 5 5 0 3 1 4 1 0 1 4 6 6 5 4 6 8 8 8 9 8 8 9 8 9 10 12 12 12 15 18 18 18 16 14 11 11 14 16 18 19 20 21 20 19 18 17 17 17 16 15 15 15 15 15 15 14 12 11 10 9 8 8 9 10
6 3 1 2 2 4 5 5 2 2 4 5 4 5 4 4 5 4 5 4 4 2 6 4 1 4 2 3 4 4 5 5 5 7 6 5 6 7 7 7 8 8 7 8 8 7 7 7 8 11 12 7 6 10 13 13 11 9 10 12 15 18 20 21 20 19 18 19 18 17 16 16 15 15 16 17 17 15 13 12 11 11 11 11 12 11
4 3 4 5 1 4 6 4 2 4 5 5 5 5 4 2 3 2 3 1 2 4 4 3 2 2 3 5 4 5 7 5 5 7 7 7 7 7 6 7 7 7 7 7 5 3 3 4 3 5 8 10 7 13 18 11 5 4 3 9 15 18 18 18 18 17 17 18 18 18 18 17 17 16 16 17 17 16 14 13 13 13 13 13 13 11
3 4 5 3 2 1 5 5 2 1 1 4 5 4 4 3 2 1 3 1 2 4 2 4 3 1 3 3 2 5 6 6 6 5 5 5 5 4 3 2 2 2 2 2 5 7 7 9 10 11 13 11 9 17 20 10 5 3 4 9 11 10 11 13 15 17 17 17 18 18 19 18 17 16 15 16 17 16 14 13 12 12 13 13 12 10
2 3 3 3 1 1 2 4 6 5 3 3 3 5 5 4 4 3 3 2 3 2 2 3 1 2 2 2 4 6 5 5 5 2 1 2 2 5 6 6 6 5 6 7 8 9 9 12 15 18 16 7 9 14 16 8 8 11 10 5 2 3 9 15 18 19 19 18 18 19 20 19 18 16 15 15 15 14 14 13 11 11 11 11 10 9
4 4 6 3 2 1 1 2 5 6 3 1 2 5 3 4 5 3 3 4 3 2 0 1 2 2 3 2 4 4 4 5 4 2 6 7 6 8 8 8 7 7 6 6 7 9 10 12 13 14 16 13 14 19 17 9 10 14 10 10 4 6 16 19 19 19 18 18 20 20 21 20 19 17 15 15 15 13 13 12 10 9 10 10 10 9
3 3 5 4 2 2 2 2 3 3 3 1 2 3 4 4 7 6 2 1 3 3 2 1 1 4 2 1 4 5 5 5 5 4 6 7 8 9 8 7 7 6 5 5 4 6 7 10 13 12 14 16 17 21 20 15 14 11 12 12 10 16 25 27 22 21 20 20 20 21 20 19 19 17 15 15 14 13 12 11 9 9 9 9 9 8
4 2 5 2 2 2 2 1 3 2 4 5 3 5 3 3 5 5 3 3 4 2 3 2 1 3 1 1 3 3 3 3 5 4 4 5 7 8 7 6 6 5 6 6 5 4 4 7 14 15 15 17 22 24 21 19 15 11 13 17 20 26 34 34 28 24 23 21 19 19 18 19 19 17 16 15 14 13 13 12 10 9 9 8 8 7
4 1 6 2 2 2 5 5 4 5 3 5 4 3 3 3 1 2 3 2 2 2 3 3 1 2 3 3 3 3 4 2 3 4 4 4 4 5 4 5 5 5 7 4 3 2 3 7 11 15 18 17 19 20 18 16 14 14 16 20 26 31 32 29 26 23 21 19 18 18 18 19 19 18 16 15 15 14 13 12 10 9 9 8 7 7
3 3 3 3 1 2 5 3 2 3 4 4 3 3 3 3 4 2 2 3 3 3 2 2 2 2 5 4 4 6 6 5 2 1 3 3 3 4 4 4 4 3 5 6 4 2 2 7 8 11 15 15 13 14 15 14 14 18 22 24 29 31 29 26 23 21 19 18 17 17 17 18 19 19 18 17 16 15 14 12 10 9 9 8 7 7
3 3 3 3 3 2 2 1 3 4 2 3 3 2 2 2 3 2 2 2 3 4 3 1 1 4 5 3 5 6 6 7 5 3 3 3 4 5 5 5 6 4 4 4 5 4 4 8 9 8 9 11 10 11 14 14 16 21 27 29 29 29 31 31 25 21 19 18 17 16 16 17 19 21 20 19 18 17 16 14 11 10 9 9 9 8
2 3 3 1 3 2 0 2 3 4 5 5 3 2 3 3 3 4 1 1 2 4 4 4 2 6 5 3 4 5 5 6 6 5 5 4 5 5 4 5 5 5 5 4 3 3 5 9 10 9 8 9 10 11 13 13 16 20 24 28 29 28 29 28 25 22 21 19 15 13 13 15 19 21 20 19 18 17 17 16 14 12 11 10 9 8
3 4 4 1 1 1 4 5 2 1 4 6 4 3 4 3 4 5 3 3 1 2 2 4 1 5 5 3 4 5 4 5 6 6 6 5 4 4 3 3 3 3 3 2 3 4 6 8 11 11 10 9 8 9 9 10 13 16 18 22 24 24 24 22 20 20 19 17 13 12 12 13 16 20 20 19 18 17 17 17 16 14 13 13 12 10
2 4 4 1 3 4 5 6 4 4 6 6 4 2 3 2 2 5 5 3 3 3 2 3 1 5 5 3 2 2 2 4 5 5 6 6 4 4 3 3 3 3 3 4 5 5 6 6 7 10 11 10 10 8 7 8 10 13 14 16 17 18 18 17 16 16 15 13 12 12 12 11 13 16 18 19 19 17 17 18 17 16 16 16 14 11
1 2 4 3 2 4 4 5 5 4 4 4 2 3 2 3 5 3 2 3 2 3 4 4 3 6 5 4 4 3 5 5 3 2 3 4 4 4 4 4 4 4 4 5 4 4 5 5 5 7 11 11 11 9 8 8 9 11 13 15 16 16 15 14 12 13 13 13 12 12 12 12 13 15 17 19 19 18 17 17 17 16 16 15 13 11
3 2 3 5 4 3 2 2 3 1 1 2 2 4 3 5 4 2 2 4 1 3 4 4 4 5 4 4 6 4 5 5 2 2 2 1 2 4 4 4 4 4 5 5 4 4 4 4 5 7 10 11 11 10 9 10 10 11 12 13 14 16 16 14 12 12 13 14 13 12 12 12 14 15 18 19 18 17 17 16 15 15 14 13 12 12
5 3 2 6 5 5 6 4 4 3 4 2 1 4 4 2 3 4 4 2 3 3 1 4 5 3 3 4 6 4 2 2 2 3 2 1 1 2 3 4 3 3 4 3 3 3 3 4 4 6 9 11 11 11 12 11 10 11 11 11 12 14 15 13 12 12 13 14 14 13 12 12 13 15 17 16 16 16 14 11 11 11 11 11 11 11
5 3 1 5 4 1 3 2 1 3 5 5 3 1 2 2 3 5 3 3 5 5 3 6 4 4 4 5 5 6 5 3 2 2 1 1 2 2 3 4 4 4 3 3 2 1 2 2 2 3 7 10 11 12 13 12 10 10 10 10 11 12 13 13 12 12 12 13 14 14 14 14 14 15 15 15 14 12 10 7 7 8 8 8 9 9
6 2 1 4 4 3 3 4 3 4 4 3 3 1 1 2 3 4 3 3 6 5 5 6 6 4 4 5 5 5 5 3 2 3 3 2 3 3 4 4 3 3 2 2 1 1 3 3 3 2 3 6 8 10 12 14 13 10 9 9 10 11 11 12 11 11 11 12 13 14 14 14 14 14 14 13 10 8 7 7 9 10 10 9 9 10
5 2 1 4 4 5 5 5 3 5 5 3 3 3 1 3 4 5 3 1 2 1 3 6 8 3 3 4 5 6 4 3 1 4 5 5 5 4 5 4 2 2 2 2 2 3 3 4 5 5 5 4 4 5 7 10 11 12 10 8 9 9 9 9 9 9 10 10 11 12 12 11 12 12 11 10 8 5 4 6 8 9 9 9 9 9
4 2 0 3 5 4 5 5 4 5 6 4 2 4 1 4 4 4 3 1 1 1 1 4 7 4 3 3 4 4 3 3 6 8 7 6 6 4 5 5 4 4 5 5 5 5 5 6 7 7 7 8 8 7 7 7 8 11 11 9 8 8 8 8 9 9 9 9 9 9 9 9 10 11 10 9 7 5 4 4 4 4 4 5 4 4
4 3 0 4 4 1 3 5 4 5 7 4 2 4 4 3 3 2 3 2 0 2 3 4 4 1 3 4 5 6 7 9 9 8 7 6 6 5 5 5 5 6 6 6 6 6 6 6 6 8 10 11 10 9 8 7 8 11 11 11 11 10 10 10 12 12 11 11 10 9 9 10 10 10 10 8 7 6 5 5 5 6 6 5 4 3
2 4 3 3 3 3 2 3 3 4 6 2 3 1 2 2 4 4 3 3 2 1 4 4 3 3 3 3 6 8 9 10 9 7 6 6 6 6 6 6 6 6 6 7 7 7 7 7 9 12 14 14 14 12 11 8 8 9 10 11 12 12 13 13 14 14 14 13 12 11 10 10 11 11 12 11 11 10 10 9 9 9 9 8 7 6
3 4 3 2 3 3 3 3 4 3 1 4 5 3 3 3 5 6 4 3 3 2 2 3 2 2 2 5 8 8 8 8 7 6 5 5 6 6 7 7 6 6 7 8 7 7 8 9 11 15 18 18 17 16 14 12 11 10 9 10 10 10 10 10 10 10 11 11 12 12 12 12 13 14 14 13 13 12 12 12 11 11 10 8 7 5
3 4 2 2 4 3 1 5 4 3 5 4 5 3 2 5 7 9 7 3 4 4 4 5 5 4 5 6 6 8 7 7 7 9 9 8 6 6 7 7 6 6 6 7 7 8 10 12 13 16 18 18 18 18 17 17 16 14 13 13 12 11 11 11 10 10 9 9 9 9 9 9 10 11 11 11 10 11 11 11 10 9 8 6 5 4
4 3 2 2 3 3 2 3 4 4 5 4 5 5 2 3 4 7 6 5 5 4 3 4 3 1 3 2 2 2 2 4 8 10 10 9 7 7 7 6 6 6 5 5 5 6 9 10 10 12 14 13 14 17 16 15 14 14 15 14 15 15 15 14 14 13 11 11 10 9 8 8 8 9 9 9 9 10 11 11 10 9 8 7 6 5
5 4 2 2 2 3 4 2 1 3 4 3 2 2 1 1 1 3 3 2 3 2 1 4 3 2 2 1 2 3 2 3 8 8 8 9 8 7 8 8 8 9 9 10 10 9 8 7 6 7 8 7 8 9 10 10 8 9 10 10 12 14 14 13 13 12 11 10 10 10 9 9 9 9 9 10 10 11 11 10 10 9 9 8 7 6
3 3 3 4 2 3 5 3 1 2 2 4 3 2 1 1 3 4 5 1 4 3 0 4 4 3 3 3 5 4 3 6 6 5 7 8 7 7 9 11 13 14 15 17 17 16 15 12 8 6 6 4 3 3 5 6 4 2 2 3 5 6 6 6 9 11 10 9 8 8 8 7 7 7 8 8 9 9 9 9 8 8 8 7 6 5
6 3 3 4 2 2 5 4 2 3 4 4 4 5 5 1 3 4 5 1 4 3 2 3 5 4 4 4 4 3 4 5 2 3 5 6 6 6 7 8 12 15 16 18 19 18 18 16 13 11 10 9 9 10 10 9 7 8 7 4 2 2 3 1 2 4 5 5 5 4 4 2 2 3 4 4 5 6 6 7 7 7 6 6 5 5
6 5 4 4 2 1 4 3 2 2 2 2 3 6 6 1 4 6 2 4 3 3 3 3 5 4 4 5 5 5 5 4 3 2 5 4 4 6 7 8 10 12 13 15 16 16 16 16 15 14 14 14 13 13 13 11 10 12 13 13 11 11 10 8 7 8 9 8 7 8 8 7 5 3 2 1 2 4 5 5 6 5 5 5 5 4
4 3 2 3 2 2 3 3 0 2 2 2 4 6 6 1 4 4 4 6 2 4 3 3 5 4 4 5 5 4 2 2 3 2 4 3 3 5 8 9 9 10 12 12 13 14 13 13 14 13 13 14 13 13 12 11 10 10 12 14 15 16 15 14 13 14 16 15 12 11 10 9 7 7 6 5 3 4 4 4 4 3 3 3 3 3
2 3 2 2 2 2 2 3 1 1 2 3 4 5 4 1 2 2 4 3 1 3 3 4 4 3 3 4 4 3 3 3 3 3 3 2 3 4 7 10 10 11 12 12 12 14 14 13 13 12 11 11 11 11 11 11 10 10 10 11 12 13 14 14 15 15 15 15 14 14 12 11 10 9 8 7 6 5 5 5 4 3 2 1 1 1
1 1 2 1 1 1 2 3 1 1 2 4 3 3 3 2 3 2 0 1 2 2 3 3 2 2 2 3 1 1 3 3 3 3 3 2 1 2 5 8 9 10 11 11 12 13 13 13 13 13 13 12 11 11 12 12 12 12 13 13 12 12 12 13 14 14 14 14 15 15 15 14 13 12 11 10 9 8 8 7 6 5 4 3 3 2
1 1 1 1 1 1 2 1 1 2 3 4 2 2 2 1 2 2 2 2 2 1 2 2 1 2 2 3 2 2 2 3 3 2 2 2 1 1 2 4 6 7 8 10 10 11 11 12 13 14 14 14 13 12 12 12 12 12 12 13 13 13 13 13 14 15 16 16 16 16 16 16 15 15 14 13 12 11 10 9 8 8 7 6 5 5
1 2 2 1 1 2 2 2 3 2 3 4 3 3 2 2 1 2 3 3 1 1 1 2 2 3 2 2 1 2 2 3 3 4 4 3 3 4 4 4 5 5 6 7 8 9 9 10 11 12 13 13 13 12 12 12 12 13 12 12 12 14 14 14 15 16 17 18 17 18 18 18 18 17 16 15 14 14 13 12 11 11 10 9 8 8
1 1 3 3 2 2 3 3 2 2 0 2 3 2 1 2 1 2 4 3 2 2 2 2 2 2 1 0 1 2 2 2 3 4 4 4 5 6 7 7 7 6 7 8 8 9 9 10 10 11 12 13 12 12 12 12 12 14 14 13 13 13 14 14 15 16 18 19 19 19 19 20 19 18 16 16 15 15 14 13 13 13 12 12 12 12
2 1 3 3 2 3 2 2 3 2 1 1 2 2 2 2 1 1 3 3 2 2 2 1 2 2 1 0 1 3 4 4 3 5 5 4 4 6 8 9 9 9 9 9 9 10 11 11 11 12 12 13 13 12 13 13 14 14 15 16 15 15 15 15 14 14 15 16 17 18 20 20 19 18 18 17 16 16 16 15 15 15 15 15 14 14
1 2 3 3 2 1 2 4 3 1 2 3 1 1 1 1 2 1 1 1 1 1 1 1 1 2 2 2 3 3 4 5 4 4 5 4 5 7 9 10 11 11 11 10 11 11 12 12 13 13 13 14 13 12 13 14 14 15 16 17 17 17 17 16 15 15 14 13 13 14 16 17 17 17 18 17 17 17 18 17 17 17 17 16 15 15
1 2 1 2 3 2 1 1 0 1 3 5 4 3 3 3 1 2 3 3 3 3 3 3 3 3 3 3 3 2 4 5 3 3 4 4 4 7 9 10 10 11 12 12 13 13 13 14 14 14 15 15 14 13 13 14 14 15 15 16 18 19 19 18 18 17 17 15 14 13 13 14 15 16 17 17 18 19 19 20 19 19 18 17 16 16
2 1 1 3 4 1 2 3 3 2 2 4 4 4 5 4 2 1 3 3 3 4 4 4 5 5 3 3 3 1 2 3 4 4 3 4 5 7 9 10 12 13 13 14 15 15 15 15 16 16 17 17 16 15 16 16 15 14 14 15 16 18 19 20 20 20 20 19 18 17 16 17 18 19 20 20 20 20 21 21 20 19 19 18 17 18
3 4 3 4 3 4 6 5 4 4 2 4 4 4 4 3 3 1 2 3 4 5 4 3 5 6 3 4 5 4 3 2 4 4 4 6 8 9 11 13 14 15 15 15 15 16 16 17 17 17 18 19 18 18 18 19 18 16 15 14 15 16 17 19 20 21 22 22 21 20 19 20 21 22 22 22 21 21 21 20 18 18 18 17 17 18
Wind_Direction
86 96 216 214 216 216 212 194 167 162 125 111 133 160 211 222 271 275 272 283 208 106 331 245 177 188 213 202 165 148 139 146 160 168 166 159 158 165 168 166 171 176 159 140 143 172 204 212 209 204 192 188 189 188 184 184 196 198 191 193 192 191 190 183 178 177 175 169 164 160 154 148 142 144 144 143 145 144 140 134 128 127 127 126 119 114
62 101 234 225 209 203 202 192 150 116 81 71 141 183 268 218 246 268 264 308 321 104 339 327 105 56 244 215 176 149 151 165 172 177 171 163 167 172 166 165 170 168 140 142 149 173 203 218 220 209 197 193 193 194 191 187 190 188 186 193 190 187 189 183 178 177 173 169 166 162 161 160 154 152 153 151 152 151 145 141 137 135 138 138 127 126
29 237 246 231 183 144 136 150 134 119 101 85 130 149 280 246 267 291 287 324 355 87 354 42 99 34 290 254 251 191 163 163 163 175 172 168 177 182 176 174 174 164 152 162 165 176 199 214 215 208 204 202 201 202 197 187 185 183 187 195 190 186 186 180 178 176 171 170 171 170 169 168 165 159 159 159 156 154 155 153 153 154 158 157 141 133
282 250 249 201 139 130 113 119 118 112 120 125 133 135 263 265 138 315 306 333 352 50 79 91 86 349 321 347 273 283 31 104 111 133 161 187 202 203 184 180 178 173 172 178 178 184 200 206 204 203 207 209 208 206 199 189 188 188 188 191 189 186 182 175 175 178 176 174 176 177 176 175 171 164 163 163 157 159 162 157 158 163 161 161 157 146
225 239 187 117 133 153 157 156 140 145 243 276 179 164 233 254 185 218 314 348 347 10 62 75 45 340 345 40 201 277 31 105 120 136 159 196 198 130 181 185 182 183 187 189 188 194 202 204 201 200 205 210 209 205 199 191 193 195 189 186 187 183 176 173 179 186 185 180 175 169 163 163 160 156 160 162 157 160 161 153 148 147 144 143 141 136
251 242 143 127 157 163 158 193 188 164 168 308 237 199 203 193 181 237 344 27 34 6 8 59 60 323 326 330 229 298 4 111 148 167 172 183 173 164 186 194 189 184 191 199 199 198 206 209 204 202 205 209 209 206 199 192 196 201 194 185 183 179 173 176 186 189 187 181 173 163 155 153 151 150 158 164 161 162 160 149 141 137 135 130 126 126
250 250 119 148 167 150 147 217 227 163 124 315 243 195 179 147 137 164 31 54 83 294 328 57 109 200 316 313 296 329 332 144 256 206 193 182 178 180 185 192 195 190 192 201 203 201 207 208 204 205 208 210 209 203 197 194 196 200 195 187 182 178 176 180 185 186 185 178 170 168 166 164 162 159 162 168 166 162 155 144 138 134 132 129 127 127
198 115 60 99 118 127 147 229 221 151 122 225 227 154 141 140 150 148 95 82 179 220 329 13 91 125 296 274 291 339 66 257 284 242 228 206 188 186 184 190 196 196 193 193 198 203 206 206 204 203 206 209 208 200 197 197 197 197 194 188 184 181 180 182 184 187 187 181 175 175 174 172 172 170 165 166 164 158 152 144 138 133 127 124 125 126
195 159 161 125 93 130 199 218 184 151 137 230 193 137 135 141 140 118 97 93 26 77 308 328 33 109 250 277 310 6 82 286 277 252 247 233 206 192 188 192 197 199 196 194 200 201 203 208 204 198 198 204 206 204 201 197 196 197 193 188 184 183 183 183 185 189 190 190 188 183 177 171 170 170 165 162 160 157 155 149 142 138 132 126 126 129
237 208 188 142 123 200 226 230 173 158 165 194 141 102 75 73 70 69 89 98 46 61 237 287 3 105 257 293 336 23 43 300 274 252 242 235 219 199 191 194 194 197 198 198 204 205 204 207 203 194 190 195 204 206 199 191 193 194 189 186 182 180 182 183 187 193 194 195 195 188 180 173 168 168 166 163 162 161 160 156 150 148 146 140 140 137
297 289 173 143 168 193 173 93 154 151 131 132 108 71 54 38 30 42 50 75 64 3 251 260 355 122 246 286 271 7 311 281 279 277 267 254 234 207 194 194 190 194 201 199 205 206 203 201 195 189 186 191 199 200 196 192 192 190 188 186 180 180 184 187 192 197 196 196 196 191 185 181 177 175 174 171 168 168 168 163 155 152 148 144 144 140
339 352 243 243 200 153 106 81 64 45 82 104 84 78 81 10 11 30 359 42 88 266 258 260 218 136 172 249 236 257 276 269 260 263 270 276 256 226 201 192 186 191 196 197 201 197 185 175 175 182 179 168 173 197 210 203 184 181 190 187 183 186 191 192 194 197 196 195 196 195 195 193 191 188 186 183 179 177 177 170 160 153 146 141 141 139
317 258 279 306 261 133 105 96 52 13 38 78 84 87 95 21 16 30 314 12 171 243 262 325 353 156 216 232 228 265 283 279 259 254 262 262 249 232 210 191 183 186 189 195 191 155 115 91 101 157 129 100 131 204 226 218 151 111 155 194 200 197 195 194 193 195 197 199 201 203 204 202 199 198 196 193 188 185 185 179 168 158 152 148 145 142
295 302 323 324 281 142 114 123 148 308 72 129 136 123 119 104 76 220 268 317 244 250 300 339 344 297 273 269 263 283 288 289 286 273 260 251 223 184 173 162 157 160 144 97 70 67 64 64 59 70 93 113 173 212 229 223 143 125 189 207 209 193 189 194 196 200 204 207 210 212 211 207 204 204 203 200 194 189 189 186 175 165 160 156 151 147
165 311 283 195 227 314 125 152 161 153 143 171 162 129 140 154 140 191 217 181 216 242 324 319 303 162 205 267 290 287 294 309 306 302 70 49 67 92 72 49 41 38 50 63 73 79 78 81 82 88 104 152 236 240 239 218 175 199 199 169 127 162 203 212 209 208 210 213 215 215 213 211 210 211 211 204 197 194 191 186 178 170 165 160 158 155
141 232 259 259 253 139 111 179 147 117 104 240 143 109 150 181 141 132 175 169 171 147 24 266 219 203 206 269 307 317 341 351 339 15 77 71 61 69 64 56 52 42 49 72 92 101 103 102 101 107 130 171 228 244 241 224 200 199 159 106 102 218 228 229 219 213 219 223 219 215 213 211 211 213 214 208 201 199 196 190 183 177 168 161 163 167
125 245 287 328 339 79 91 197 163 134 156 173 125 159 215 173 119 110 139 59 83 121 222 252 268 303 342 343 323 3 19 2 0 23 68 81 79 78 73 68 67 54 38 29 69 109 129 129 123 130 149 171 208 235 238 227 215 190 148 147 182 216 228 230 224 218 224 226 217 209 208 209 211 214 218 215 207 204 201 195 190 185 177 166 165 174
140 239 297 8 83 18 7 61 43 44 124 124 171 203 193 114 95 105 116 19 50 147 263 330 285 290 14 162 298 11 51 358 357 12 41 59 77 89 94 91 89 85 59 16 0 53 87 105 119 147 179 192 202 217 227 223 212 180 169 186 198 211 220 222 220 217 220 220 212 206 207 208 211 216 220 218 214 210 203 199 198 194 186 176 171 177
121 148 292 287 157 330 360 56 47 349 34 110 164 172 113 127 135 95 121 125 110 169 280 325 322 232 202 216 243 186 181 219 341 4 38 51 65 82 96 95 89 95 94 76 325 335 63 85 117 165 196 207 199 200 210 213 198 173 177 198 209 214 217 217 214 212 212 212 209 209 209 209 212 215 217 218 218 216 208 202 201 196 191 185 181 184
101 127 262 273 221 345 9 59 146 302 359 52 74 39 41 131 154 150 136 148 151 156 225 306 346 252 229 214 191 200 213 206 207 24 71 89 95 103 118 112 100 114 128 138 180 230 106 97 118 169 202 218 206 190 191 193 182 171 176 194 210 216 220 221 215 206 207 207 206 209 209 211 214 212 212 215 219 220 214 207 201 195 192 186 185 192
67 121 201 286 329 21 48 119 186 187 150 74 55 37 27 65 122 143 82 82 128 139 172 195 291 264 252 206 186 211 218 196 183 164 138 131 131 136 140 137 139 149 148 148 165 163 114 101 109 140 189 214 206 181 176 173 166 167 174 185 200 211 218 223 219 211 212 213 211 212 210 212 214 211 210 214 218 222 220 214 207 199 196 191 190 198
110 137 170 307 6 59 130 269 244 203 170 135 123 141 140 125 125 122 92 325 107 121 163 162 199 266 262 208 215 232 213 189 170 152 149 149 150 149 139 139 146 147 152 162 152 117 92 95 107 123 157 180 175 161 157 154 152 159 171 184 196 207 214 218 217 215 217 218 215 214 210 211 213 211 212 215 219 225 225 222 218 212 211 210 206 208
143 112 103 70 41 210 270 291 314 111 112 102 104 128 130 121 112 122 169 231 108 96 146 130 155 268 262 236 246 249 215 175 154 151 154 154 151 140 132 133 123 118 134 127 80 64 65 85 110 124 135 140 134 131 136 135 136 146 165 182 195 206 211 214 217 218 219 218 212 207 207 210 213 214 216 218 223 228 229 229 226 222 224 227 226 227
117 92 85 35 310 314 310 320 354 42 74 70 44 51 86 69 89 135 169 171 135 155 149 102 231 264 277 298 286 224 159 130 142 158 153 149 144 126 127 121 103 96 75 59 52 48 55 70 98 110 105 103 103 107 121 130 134 142 157 173 186 198 205 210 215 216 213 208 203 202 203 205 210 215 216 218 223 227 230 232 230 227 231 237 240 239
115 100 102 91 23 353 346 338 340 358 43 68 17 350 43 78 80 104 123 85 109 192 151 135 219 253 276 331 19 77 104 100 107 122 115 131 142 137 132 118 107 100 81 76 72 71 79 77 77 87 91 96 103 110 119 129 139 148 157 168 176 180 182 186 192 194 192 190 190 192 194 197 203 208 209 212 220 226 228 229 230 229 233 237 239 236
114 111 113 121 145 174 188 248 249 242 47 59 359 352 37 89 98 129 114 87 149 203 141 147 216 260 295 359 25 55 103 108 94 80 74 89 147 146 136 127 126 121 116 119 121 116 116 116 103 99 101 103 106 113 119 125 132 141 152 164 170 171 171 169 168 169 173 177 176 176 181 189 196 201 203 205 212 219 222 223 225 228 229 231 231 230
109 78 93 124 144 182 185 211 225 158 99 94 331 346 11 56 96 103 90 106 183 170 185 218 203 218 293 348 5 0 54 121 144 139 145 166 141 131 115 110 111 113 118 118 118 132 134 125 118 114 111 107 105 111 117 120 122 127 140 153 160 165 168 167 163 161 163 170 173 174 176 181 188 193 193 192 196 201 205 208 214 218 220 222 226 227
101 71 86 100 76 221 176 183 264 91 103 139 170 346 358 13 75 92 103 195 154 116 270 257 184 169 251 315 336 324 328 339 1 11 314 334 30 59 81 90 92 87 78 64 65 92 85 76 80 108 116 115 113 116 116 118 121 121 129 141 147 155 161 163 162 156 156 164 169 170 171 174 178 177 172 170 175 182 185 190 212 223 218 213 216 221
103 86 199 97 51 12 35 32 49 83 84 109 132 115 18 26 69 110 154 191 147 138 231 218 145 158 254 309 321 304 297 293 328 345 330 359 23 30 55 78 106 115 110 100 72 31 37 21 355 18 85 112 121 123 119 120 127 128 130 138 143 147 154 159 161 159 160 164 166 168 170 171 173 172 170 172 183 201 210 214 226 232 227 221 221 230
103 54 7 107 78 34 20 12 48 92 86 54 2 325 20 81 85 113 130 156 149 181 221 156 121 112 278 293 306 304 284 244 16 20 17 16 6 24 59 56 48 67 66 54 30 20 23 13 12 18 20 38 65 87 97 108 122 128 131 140 147 148 150 154 157 158 162 165 167 171 175 176 178 181 183 183 189 208 214 210 220 227 230 233 238 248
86 101 319 88 73 20 2 17 46 91 113 115 341 330 47 111 90 72 77 58 65 65 66 118 106 71 336 316 330 340 2 67 55 33 25 15 357 28 74 67 46 44 35 25 20 19 21 19 22 29 29 29 31 35 44 55 83 107 121 138 149 151 150 149 146 143 146 149 152 157 159 158 160 161 162 158 154 156 153 161 181 189 201 218 227 237
58 116 87 67 86 307 340 39 57 80 88 85 357 353 20 100 115 76 64 66 142 150 117 107 112 98 316 341 20 32 45 58 52 32 24 19 9 30 66 73 72 66 50 41 35 32 33 26 28 39 42 38 36 37 36 40 65 91 111 125 128 126 127 131 132 131 131 133 137 143 146 146 144 142 143 143 142 144 145 141 135 129 132 135 127 124
67 127 145 98 119 214 305 33 52 67 65 12 276 300 34 111 128 104 55 26 357 138 144 156 176 221 287 11 56 53 50 55 50 33 25 22 25 44 59 64 70 71 67 63 53 43 41 38 45 53 53 52 51 47 42 43 57 72 92 109 113 112 115 118 120 119 118 117 119 125 132 138 140 137 133 130 125 121 120 119 115 112 110 108 103 95
51 93 132 118 125 204 275 15 49 70 125 248 266 249 201 175 135 112 78 8 350 25 128 148 135 108 73 76 84 76 65 63 57 47 42 33 34 52 62 65 68 68 68 69 64 53 44 43 51 57 58 60 62 63 62 59 59 63 78 95 105 109 110 111 113 113 112 111 111 112 118 124 127 126 124 123 119 116 115 115 112 110 109 105 102 97
69 74 106 82 105 160 314 44 84 195 227 249 301 318 162 143 122 110 96 52 16 27 71 88 83 98 104 98 101 98 94 90 73 54 44 36 35 51 58 55 52 56 64 68 70 68 58 47 46 51 55 60 64 68 69 65 64 67 67 71 80 89 97 105 108 106 104 109 112 114 121 126 127 127 128 125 123 124 126 126 124 122 122 120 124 128
121 112 126 84 100 145 99 90 162 228 263 283 321 341 56 87 79 83 69 28 14 24 79 95 80 92 108 105 106 100 103 92 69 51 35 29 29 42 53 47 35 34 36 34 38 61 65 51 40 45 50 50 54 62 65 63 65 71 69 64 63 62 67 76 85 89 92 97 101 103 110 121 128 132 135 136 136 138 141 142 141 142 144 147 152 154
136 131 125 109 135 145 122 135 204 345 329 277 295 347 85 38 18 107 106 351 335 350 135 124 88 32 28 350 324 329 336 56 59 35 15 17 19 29 45 46 40 32 24 26 26 29 37 33 24 44 56 56 60 67 65 57 61 73 75 71 65 59 54 49 48 54 68 81 91 95 97 104 112 117 123 130 134 138 141 143 143 144 145 144 145 141
102 140 162 161 174 118 101 99 41 24 287 238 245 286 311 255 218 153 118 351 307 322 146 136 107 62 35 355 331 336 21 57 55 4 348 1 7 21 36 39 42 41 36 37 38 34 32 29 17 15 25 31 38 31 22 20 15 21 50 73 78 68 57 40 27 25 35 49 62 71 76 83 91 98 108 117 124 130 136 139 140 141 138 135 133 126
43 52 108 124 138 116 114 132 167 185 223 240 257 293 318 295 183 122 85 291 277 331 31 109 97 72 56 28 2 25 65 79 76 329 330 343 352 14 34 33 38 45 46 47 45 39 37 39 38 31 25 18 9 358 348 338 320 307 303 295 283 298 299 289 1 8 10 10 4 358 355 8 45 73 91 102 112 121 132 137 137 134 128 124 116 104
26 19 46 90 106 109 122 139 183 193 226 275 289 303 314 304 127 101 104 249 275 9 26 86 85 68 58 50 41 55 79 117 153 280 302 312 349 23 39 33 27 34 42 46 45 39 36 37 38 39 36 28 17 4 353 342 326 311 301 295 290 285 279 267 249 241 244 254 265 271 272 273 269 258 245 199 130 128 136 139 133 125 119 111 98 87
15 16 46 101 88 60 100 112 329 250 253 301 310 307 309 331 112 121 204 237 299 28 23 67 76 63 58 65 68 77 101 183 199 248 287 315 9 24 30 32 31 33 36 38 36 32 30 30 30 29 27 22 14 4 357 348 331 309 297 295 292 284 276 272 267 257 252 251 249 243 242 240 234 232 228 218 198 170 162 158 147 138 125 104 84 66
13 12 18 68 60 38 94 107 88 271 305 336 315 307 325 95 154 201 217 221 89 57 30 40 55 53 62 71 86 127 167 228 254 261 288 334 9 11 17 23 23 24 25 24 22 19 15 14 15 13 9 8 5 358 355 350 339 327 315 306 301 295 285 280 277 269 255 246 240 235 229 223 220 222 219 215 213 207 198 191 186 185 181 160 116 15
36 49 18 25 43 43 65 70 101 187 306 331 323 324 7 94 175 208 166 55 82 89 67 45 21 349 61 70 55 171 191 232 256 259 269 289 354 17 19 15 6 3 7 8 7 7 3 357 353 349 346 348 350 348 347 344 340 336 329 318 310 305 297 288 281 271 253 241 238 232 226 222 222 222 222 222 221 219 217 210 208 212 216 217 225 250
4 107 146 253 341 77 91 92 165 205 287 321 15 85 61 101 176 172 105 49 33 92 107 104 245 244 163 135 193 231 250 280 294 314 324 326 358 22 21 6 352 349 354 356 354 354 353 345 338 334 332 333 336 337 336 335 332 329 328 323 316 306 295 286 278 267 254 246 241 232 224 222 221 220 223 224 221 220 219 217 217 221 223 225 230 241
3 110 133 106 63 101 129 156 171 199 291 345 46 91 105 104 129 140 127 111 98 192 171 154 211 229 202 172 209 237 275 305 320 329 329 322 319 325 329 334 339 339 337 342 345 345 342 335 330 327 323 322 324 323 321 324 323 318 317 322 323 315 303 290 279 268 258 251 245 238 230 224 220 220 222 222 221 222 221 219 221 223 224 227 235 244
326 70 81 82 101 80 57 75 127 162 301 18 33 41 99 123 155 140 136 153 203 227 217 211 234 244 235 51 1 321 292 288 301 301 293 292 299 306 313 323 336 343 339 339 344 342 337 330 322 318 315 314 315 313 309 309 308 305 305 308 314 319 316 306 293 278 264 254 249 242 233 224 221 221 223 223 225 228 230 230 230 230 230 233 238 240
299 67 79 84 103 91 85 165 167 160 189 2 18 26 53 54 3 126 138 169 222 246 235 228 246 245 206 146 244 269 276 283 288 290 293 297 297 304 316 326 334 340 339 339 342 338 333 327 318 311 306 303 304 304 301 297 295 295 297 298 299 305 310 310 305 293 275 258 248 237 228 224 223 223 223 224 224 226 229 231 233 234 234 234 234 234
301 68 80 81 80 102 217 229 221 231 278 289 280 185 146 89 62 66 116 164 197 280 265 248 234 209 201 220 218 224 258 276 271 277 292 303 306 313 324 330 334 337 335 332 333 331 327 324 319 314 308 303 302 300 292 287 287 289 291 293 294 297 299 298 297 295 288 275 259 243 231 227 227 225 223 222 222 223 225 228 231 234 236 237 239 241
36 45 77 96 61 32 271 248 53 358 307 302 293 258 233 214 162 16 1 14 26 359 339 328 302 252 227 255 270 250 264 288 307 308 301 307 317 322 326 329 330 330 328 326 325 324 322 319 316 313 309 305 305 304 296 288 284 283 285 288 292 295 295 291 287 286 285 281 275 264 249 240 235 232 230 229 227 227 229 231 233 236 239 241 245 248
75 75 133 95 77 25 243 201 156 145 260 269 254 239 232 216 174 45 358 350 340 324 323 321 309 306 317 333 335 319 264 313 355 7 336 321 323 322 323 323 320 318 319 320 319 317 314 311 308 306 302 299 298 298 296 293 289 284 283 286 292 296 296 291 286 282 278 275 273 268 262 257 252 246 242 239 236 233 233 233 234 236 238 241 243 245
140 163 162 136 146 216 232 215 167 143 204 242 226 220 230 204 151 148 274 264 265 277 278 269 283 300 347 31 42 69 92 27 9 9 343 321 317 315 315 315 313 311 313 314 313 311 309 307 305 301 297 295 294 291 289 289 288 286 287 291 296 302 302 298 291 282 274 270 269 267 267 267 264 258 251 245 241 238 235 233 235 238 240 243 244 244